Regional Weather Roundup
Issued by NWS

Home | Current Version | Previous Version | Text Only | Print | Product List | Glossary Off
Versions: 1 2 3 4 5 6 7 8 9 10 11 12 13 14 15 16 17 18 19 20 21 22 23 24 25 26 27 28 29 30 31 32 33 34 35 36 37 38 39 40 41 42 43 44 45 46 47 48 49 50

000
ASUS43 KFSD 260202
RWRSD

WEATHER ROUNDUP FOR SOUTH DAKOTA
NATIONAL WEATHER SERVICE SIOUX FALLS SD
900 PM CDT SAT OCT 25 2014

NOTE: "FAIR" INDICATES FEW OR NO CLOUDS BELOW 12,000 FEET WITH NO
SIGNIFICANT WEATHER AND/OR OBSTRUCTIONS TO VISIBILITY.


SDZ001>005-009-010-012>017-260300-
NORTHWEST AND NORTH CENTRAL SOUTH DAKOTA

CITY           SKY/WX    TMP DP  RH WIND       PRES   REMARKS
BUFFALO          N/A     55  31  39 SE15      29.82F
FAITH            N/A     50  31  48 SE17      29.94F
MOBRIDGE       CLEAR     53  32  44 SE15      29.97F
$$

SDZ012>016-024>037-041>051-057-063-072>074-260300-
SOUTHWEST AND SOUTH CENTRAL SOUTH DAKOTA

CITY           SKY/WX    TMP DP  RH WIND       PRES   REMARKS
RAPID CTY ARPT CLEAR     48  37  65 S7        29.94F
PIERRE         CLEAR     52  33  48 SE10      29.98F
CUSTER         CLEAR     47  33  58 CALM      30.03S
ELLSWORTH AFB  CLEAR     53  38  55 S12       29.93F
PHILIP         CLEAR     49  31  49 E9        29.96F
PINE RIDGE     CLEAR     59  37  44 E7        29.94F
SPEARFISH      FAIR      55  36  47 CALM      29.89F
WINNER         FAIR      51  33  50 SE12      30.01F
$$

SDZ004>011-016>023-039-040-260300-
NORTHEAST SOUTH DAKOTA

CITY           SKY/WX    TMP DP  RH WIND       PRES   REMARKS
ABERDEEN       CLEAR     41  31  67 E6        30.04F
WATERTOWN      CLEAR     48  30  49 CALM      30.06S
SISSETON         N/A     38  29  70 W3        30.05S
$$

SDZ017-020-022-023-036>040-048>070-260300-
SOUTHEAST SOUTH DAKOTA

CITY           SKY/WX    TMP DP  RH WIND       PRES   REMARKS
SIOUX FALLS    CLEAR     49  38  65 CALM      30.07S
HURON          CLEAR     50  30  46 E5        30.04F
CHAMBERLAIN    CLEAR     51  33  50 E8        30.02F
MITCHELL       CLEAR     50  34  54 SE6       30.05S
YANKTON        CLEAR     54  34  47 E6        30.06S
$$

ABBREVIATIONS USED IN REMARKS
   TC - TEMPERATURE IN CELSIUS
  WCI - WIND CHILL INDEX
   HX - HEAT INDEX
  VSB - VISIBILITY




USA.gov is the U.S. government's official web portal to all federal, state and local government web resources and services.